Regional Weather Roundup
Issued by NWS

Home | Current Version | Previous Version | Graphics & Text | Print | Product List | Glossary On
Versions: 1 2 3 4 5 6 7 8 9 10 11 12 13 14 15 16 17 18 19 20 21 22 23 24 25 26 27 28 29 30 31 32 33 34 35 36 37 38 39 40 41 42 43 44 45 46 47 48 49 50
000
ASUS43 KFSD 070810
RWRSD

WEATHER ROUNDUP FOR SOUTH DAKOTA
NATIONAL WEATHER SERVICE SIOUX FALLS SD
200 AM CST WED DEC 07 2016

NOTE: "FAIR" INDICATES FEW OR NO CLOUDS BELOW 12,000 FEET WITH NO
SIGNIFICANT WEATHER AND/OR OBSTRUCTIONS TO VISIBILITY.


SDZ001>005-009-010-012>017-070900-
NORTHWEST AND NORTH CENTRAL SOUTH DAKOTA

CITY           SKY/WX    TMP DP  RH WIND       PRES   REMARKS
BUFFALO          N/A      0  -7  72 NW30G36   30.08R WCI -26
FAITH            N/A      0  -4  83 W20       30.15R WCI -22
MOBRIDGE       PTCLDY     8  -2  63 NW30G43   30.06R WCI -15
$$

SDZ012>016-024>037-041>051-057-063-072>074-070900-
SOUTHWEST AND SOUTH CENTRAL SOUTH DAKOTA

CITY           SKY/WX    TMP DP  RH WIND       PRES   REMARKS
RAPID CTY ARPT CLOUDY     3  -4  72 NW12      30.14R WCI -13
PIERRE         CLEAR      8   1  73 NW24G32   30.15R WCI -13
CUSTER         CLOUDY    -5 -11  75 CALM      29.93R
ELLSWORTH AFB  CLOUDY     6  -4  65 NW18      30.12R WCI -14
PHILIP         CLOUDY     5  -3  69 NW18G26   30.19R WCI -15
PINE RIDGE     CLOUDY     2  -2  83 E3        30.15R
SPEARFISH      CLOUDY     3  -4  72 W12G17    30.12R WCI -13
WINNER         FAIR       9   1  70 NW15      30.18R WCI  -8
$$

SDZ004>011-016>023-039-040-070900-
NORTHEAST SOUTH DAKOTA

CITY           SKY/WX    TMP DP  RH WIND       PRES   REMARKS
ABERDEEN       CLOUDY    11   1  64 W18G28    30.04R WCI  -7
WATERTOWN      CLOUDY     7   2  80 W15G26    29.97R WCI -10
BROOKINGS      CLEAR      7   1  76 W22G32    29.99R WCI -14
SISSETON         N/A     13   5  70 NW26G37   29.92R WCI  -7
$$

SDZ017-020-022-023-036>040-048>070-070900-
SOUTHEAST SOUTH DAKOTA

CITY           SKY/WX    TMP DP  RH WIND       PRES   REMARKS
SIOUX FALLS    CLEAR     11   4  73 W24G32    30.08R WCI  -9
HURON          CLEAR      7   1  76 W20G25    30.12R WCI -13
CHAMBERLAIN    CLEAR     10   3  73 W22G29    30.15F WCI -10
MITCHELL       CLEAR     10   2  69 W18       30.16R WCI  -8
YANKTON        CLOUDY    12   3  67 W14       30.16S WCI  -3
$$

ABBREVIATIONS USED IN REMARKS
   TC - TEMPERATURE IN CELSIUS
  WCI - WIND CHILL INDEX
   HX - HEAT INDEX
  VSB - VISIBILITY





USA.gov is the U.S. government's official web portal to all federal, state and local government web resources and services.